Weather reports worldwide

Advertisment
Harlingen, tx, United States of America (2072802): temperature & dewpoint: 11.08.2019 20:00:00 - 17.08.2019 20:00:00 (CDT)Harlingen, tx, United States of America (2072802): wind speed & gusts: 11.08.2019 20:00:00 - 17.08.2019 20:00:00 (CDT)Harlingen, tx, United States of America (2072802): wind direction: 11.08.2019 20:00:00 - 17.08.2019 20:00:00 (CDT)Harlingen, tx, United States of America (2072802): reduced air pressure: 11.08.2019 20:00:00 - 17.08.2019 20:00:00 (CDT)Harlingen, tx, United States of America (2072802): visibility: 11.08.2019 20:00:00 - 17.08.2019 20:00:00 (CDT)Harlingen, tx, United States of America (2072802): precipitation: 11.08.2019 20:00:00 - 17.08.2019 20:00:00 (CDT)
Date & Time tt [°C] td [°C] ff [km/h] ff [kn] fx [km/h] fx [kn] dd ppp [hPa] vv [km] rr [mm]
17.08.2019 20:00:00 31,1 22,2 28 15 - - SE 1008,1 16 -
17.08.2019 19:00:00 33,3 21,1 35 19 48 26 SSE 1008,0 16 -
17.08.2019 18:00:00 35,0 22,2 29 16 48 26 SSE 1008,1 16 -
17.08.2019 17:00:00 35,6 22,8 37 20 - - SE 1008,4 16 -
17.08.2019 16:00:00 35,6 22,8 28 15 48 26 SSE 1008,8 16 -
17.08.2019 15:00:00 35,6 23,3 34 18 - - SSE 1009,5 16 -
17.08.2019 14:00:00 36,1 22,8 28 15 - - S 1010,3 16 -
17.08.2019 13:00:00 35,0 23,3 29 16 - - S 1011,0 16 -
17.08.2019 12:00:00 35,6 23,3 34 18 - - S 1011,4 16 0,0
17.08.2019 11:00:00 34,4 24,4 34 18 - - SSE 1011,6 16 -
17.08.2019 10:00:00 31,7 25,0 34 18 - - S 1011,3 16 -
17.08.2019 09:00:00 30,0 25,6 21 11 - - S 1011,2 16 -
17.08.2019 08:00:00 26,7 25,0 15 8 - - SSE 1010,8 10 -
17.08.2019 07:00:00 25,6 24,4 9 5 - - SE 1011,0 11 -
17.08.2019 06:00:00 26,1 25,0 11 6 - - SE 1010,9 11 -
17.08.2019 05:00:00 26,7 25,0 11 6 - - SE 1011,0 15 -
17.08.2019 04:00:00 27,2 25,0 13 7 - - SSE 1011,3 16 -
17.08.2019 03:00:00 27,8 25,0 15 8 - - S 1011,5 16 -
17.08.2019 02:00:00 27,8 25,0 15 8 - - S 1012,0 16 -
17.08.2019 01:00:00 28,3 25,0 22 12 - - S 1012,1 16 -
17.08.2019 00:00:00 28,9 25,0 21 11 - - SSE 1012,1 16 -
16.08.2019 23:00:00 28,9 25,0 24 13 - - SSE 1011,9 16 -
16.08.2019 22:00:00 29,4 25,0 26 14 - - SSE 1010,9 16 -
16.08.2019 21:00:00 30,0 24,4 28 15 - - SSE 1010,5 16 -
16.08.2019 20:00:00 31,7 22,8 28 15 - - SE 1010,2 16 -
16.08.2019 19:00:00 33,3 21,7 35 19 50 27 SE 1009,8 16 -
16.08.2019 18:00:00 35,6 21,7 29 16 50 27 SSE 1009,8 16 -
16.08.2019 17:00:00 37,8 21,1 34 18 - - SSE 1009,8 16 -
16.08.2019 16:00:00 38,3 20,0 22 12 - - SSE 1010,4 16 -
16.08.2019 15:00:00 38,3 17,8 21 11 - - SE 1011,5 16 -
16.08.2019 14:00:00 37,8 17,2 - - - - - 1012,3 16 -
16.08.2019 13:00:00 37,2 19,4 9 5 - - - 1012,9 16 -
16.08.2019 12:00:00 35,0 21,1 15 8 - - SSE 1013,4 16 -
16.08.2019 11:00:00 33,3 21,7 21 11 - - S 1013,5 16 -
16.08.2019 10:00:00 31,7 22,8 24 13 - - S 1013,2 16 -
16.08.2019 09:00:00 29,4 25,0 21 11 - - S 1013,1 16 -
16.08.2019 08:00:00 26,1 24,4 5 3 - - E 1012,9 16 -
16.08.2019 07:00:00 24,4 23,9 9 5 - - SE 1012,3 16 -
16.08.2019 06:00:00 24,4 23,3 0 0 - - N 1012,2 16 -
16.08.2019 05:00:00 25,0 23,9 9 5 - - SSE 1011,9 16 -
16.08.2019 04:00:00 26,1 24,4 8 4 - - SSE 1012,5 16 -
16.08.2019 03:00:00 27,2 24,4 13 7 - - S 1013,0 16 -
16.08.2019 02:00:00 27,8 24,4 16 9 - - S 1013,6 16 -
16.08.2019 01:00:00 26,7 23,9 9 5 - - SSE 1014,2 16 -
16.08.2019 00:00:00 27,8 24,4 11 6 - - SSE 1013,9 16 -
15.08.2019 23:00:00 28,3 24,4 16 9 - - SSE 1013,4 16 -
15.08.2019 22:00:00 28,9 24,4 24 13 - - SSE 1012,8 16 -
15.08.2019 21:00:00 30,0 23,3 22 12 - - SE 1012,0 16 -
15.08.2019 20:00:00 31,7 22,2 22 12 - - ESE 1011,5 16 -
15.08.2019 19:00:00 33,9 23,3 22 12 - - ESE 1011,1 16 -
15.08.2019 18:00:00 36,1 23,3 26 14 - - SE 1010,9 16 -
15.08.2019 17:00:00 37,2 23,3 28 15 - - ESE 1011,1 16 -
15.08.2019 16:00:00 37,2 22,8 21 11 - - ESE 1011,5 16 -
15.08.2019 15:00:00 37,2 18,9 0 0 - - N 1012,3 16 -
15.08.2019 14:00:00 37,8 18,9 0 0 - - N 1012,8 16 -
15.08.2019 13:00:00 35,6 20,6 5 3 - - - 1013,6 16 -
15.08.2019 12:00:00 34,4 22,8 11 6 - - SSW 1014,5 16 -
15.08.2019 11:00:00 32,8 23,9 13 7 - - S 1015,0 16 -
15.08.2019 10:00:00 31,1 24,4 13 7 - - S 1015,0 16 -
15.08.2019 09:00:00 28,9 25,6 13 7 - - SSE 1014,9 16 -
15.08.2019 08:00:00 25,6 25,0 9 5 - - E 1014,6 13 -
15.08.2019 07:00:00 24,4 23,9 5 3 - - ENE 1014,4 16 -
15.08.2019 06:00:00 25,6 24,4 9 5 - - S 1013,6 16 -
15.08.2019 05:00:00 26,7 25,0 9 5 - - S 1013,4 16 -
15.08.2019 04:00:00 25,6 24,4 9 5 - - S 1013,8 16 -
15.08.2019 03:00:00 25,6 24,4 9 5 - - SSE 1013,9 16 -
15.08.2019 02:00:00 25,6 24,4 9 5 - - S 1014,4 16 -
15.08.2019 01:00:00 26,7 25,0 8 4 - - SSE 1014,7 16 -
15.08.2019 00:00:00 27,2 25,0 11 6 - - SSE 1014,5 16 -
14.08.2019 23:00:00 28,3 25,0 13 7 - - SE 1014,2 16 -
14.08.2019 22:00:00 28,9 25,6 16 9 - - SE 1013,3 16 -
14.08.2019 21:00:00 30,0 25,0 22 12 - - SE 1012,3 16 -
14.08.2019 20:00:00 31,7 24,4 22 12 - - ESE 1011,6 16 -
14.08.2019 19:00:00 33,3 23,9 26 14 - - ESE 1011,0 16 -
14.08.2019 18:00:00 34,4 24,4 28 15 - - SE 1010,8 16 -
14.08.2019 17:00:00 36,7 23,9 29 16 - - SE 1011,0 16 -
14.08.2019 16:00:00 36,7 23,9 26 14 - - ESE 1011,5 16 -
14.08.2019 15:00:00 36,7 22,8 18 10 - - SSE 1012,3 16 -
14.08.2019 14:00:00 37,2 23,3 15 8 - - S 1013,0 16 -
14.08.2019 13:00:00 35,0 23,3 18 10 - - S 1013,4 16 -
14.08.2019 12:00:00 34,4 23,3 16 9 - - SSE 1013,8 16 -
14.08.2019 11:00:00 45,6 24,4 21 11 - - S 1013,5 16 -
14.08.2019 10:00:00 43,3 25,0 26 14 - - SE 1013,7 16 -
14.08.2019 09:00:00 37,8 26,1 21 11 - - SSE 1013,3 16 -
14.08.2019 08:00:00 32,8 25,0 11 6 - - SE 1013,1 15 -
14.08.2019 07:00:00 30,0 23,9 13 7 - - ESE 1012,6 16 -
14.08.2019 06:00:00 31,1 24,4 9 5 - - SE 1012,2 16 -
14.08.2019 05:00:00 29,4 24,4 5 3 - - SE 1012,4 16 -
14.08.2019 04:00:00 28,9 24,4 5 3 - - SE 1012,6 16 -
14.08.2019 03:00:00 28,3 23,9 9 5 - - SE 1012,8 16 -
14.08.2019 02:00:00 27,8 23,9 9 5 - - SE 1013,0 16 -
14.08.2019 01:00:00 27,8 23,9 8 4 - - ESE 1013,2 16 -
14.08.2019 00:00:00 28,9 24,4 11 6 - - SSE 1012,9 16 -
13.08.2019 23:00:00 30,0 24,4 16 9 - - SSE 1012,7 16 -
13.08.2019 22:00:00 30,6 25,0 24 13 - - SSE 1012,1 16 -
13.08.2019 21:00:00 31,7 24,4 29 16 - - SE 1011,4 16 -
13.08.2019 20:00:00 32,8 23,9 26 14 - - SSE 1010,9 16 -
13.08.2019 19:00:00 35,0 23,3 31 17 - - SE 1010,7 16 -
13.08.2019 18:00:00 36,7 22,8 35 19 48 26 SE 1010,4 16 -
13.08.2019 17:00:00 37,8 22,8 28 15 50 27 SE 1010,2 16 -
13.08.2019 16:00:00 39,4 22,2 28 15 - - SE 1010,3 16 -
13.08.2019 15:00:00 38,9 21,1 21 11 - - SE 1010,7 16 -
13.08.2019 14:00:00 38,3 20,6 24 13 - - S 1011,0 16 -
13.08.2019 13:00:00 37,8 22,2 26 14 48 26 SSE 1011,4 16 -
13.08.2019 12:00:00 36,1 23,9 18 10 - - SSE 1011,9 16 -
13.08.2019 11:00:00 35,0 24,4 24 13 - - S 1011,9 16 -
13.08.2019 10:00:00 33,3 25,0 28 15 - - SSE 1012,0 16 -
13.08.2019 09:00:00 30,6 25,6 18 10 - - S 1011,8 16 -
13.08.2019 08:00:00 28,3 25,6 11 6 - - SSE 1011,4 16 -
13.08.2019 07:00:00 27,8 25,6 11 6 - - SSE 1011,2 16 -
13.08.2019 06:00:00 27,8 25,6 11 6 - - S 1010,9 16 -
13.08.2019 05:00:00 28,3 25,6 13 7 - - S 1010,9 16 -
13.08.2019 04:00:00 27,8 25,6 13 7 - - SSE 1011,1 16 -
13.08.2019 03:00:00 28,3 25,6 16 9 - - S 1011,4 16 -
13.08.2019 02:00:00 28,9 25,6 16 9 - - S 1012,1 16 -
13.08.2019 01:00:00 28,9 25,0 18 10 - - S 1012,3 16 -
13.08.2019 00:00:00 28,9 25,0 16 9 - - S 1012,2 16 -
12.08.2019 23:00:00 28,9 25,0 26 14 - - SSE 1011,8 16 -
12.08.2019 22:00:00 29,4 24,4 24 13 - - SSE 1011,3 16 -
12.08.2019 21:00:00 30,0 23,9 24 13 - - SE 1011,0 16 -
12.08.2019 20:00:00 31,7 22,8 31 17 - - SSE 1010,7 16 -
12.08.2019 19:00:00 33,9 22,8 31 17 - - SE 1010,3 16 -
12.08.2019 18:00:00 36,1 21,7 37 20 50 27 SE 1010,4 16 -
12.08.2019 17:00:00 37,2 23,3 29 16 - - SSE 1010,3 16 -
12.08.2019 16:00:00 38,3 22,2 35 19 55 30 SE 1010,6 16 -
12.08.2019 15:00:00 39,4 19,4 21 11 - - S 1010,9 16 -
12.08.2019 14:00:00 38,3 20,6 26 14 - - SSE 1011,7 16 -
12.08.2019 13:00:00 38,3 22,2 34 18 - - S 1012,4 16 -
12.08.2019 12:00:00 36,7 22,8 28 15 - - S 1012,9 16 -
12.08.2019 11:00:00 35,6 23,9 26 14 - - S 1013,2 16 -
12.08.2019 10:00:00 33,3 24,4 31 17 - - S 1013,3 16 -
12.08.2019 09:00:00 30,6 25,0 26 14 - - S 1013,2 16 -
12.08.2019 08:00:00 27,8 26,1 11 6 - - SSE 1013,2 16 -
12.08.2019 07:00:00 26,7 25,0 11 6 - - SSE 1012,9 16 -
12.08.2019 06:00:00 27,2 25,6 9 5 - - S 1012,5 16 -
12.08.2019 05:00:00 27,8 25,6 13 7 - - S 1012,4 16 -
12.08.2019 04:00:00 27,8 25,6 16 9 - - S 1012,3 16 -
12.08.2019 03:00:00 28,3 25,6 16 9 - - S 1012,7 16 -
12.08.2019 02:00:00 28,3 25,0 18 10 - - SSE 1013,2 16 -
12.08.2019 01:00:00 28,9 25,6 18 10 - - SSE 1013,4 16 -
12.08.2019 00:00:00 28,3 25,6 21 11 - - SSE 1013,5 16 -
11.08.2019 23:00:00 28,9 25,6 22 12 - - SE 1013,0 16 -
11.08.2019 22:00:00 30,0 25,0 24 13 - - SE 1012,7 16 -
11.08.2019 21:00:00 31,1 24,4 24 13 - - SE 1012,3 16 -
11.08.2019 20:00:00 32,8 23,9 31 17 - - SE 1011,7 16 -

tt = temperature
td = dewpoint
ff = wind speed
fx = gusts
dd = wind direction
ppp = reduced air pressure
vv = visibility
rr = precipitation

Next stations